This is the latest recevied weather packets stored in our database for station/object N0LTM. If no packets are shown the sender has not sent any weather packets the latest 10 day(s).
| Time | Temp. | Humidity | Pressure | Rain* | Wind** | Luminosity | Snow |
|---|---|---|---|---|---|---|---|
| 1777940456 | 21.11° C | 39% | 997.1 hPa | 0 mm | - | - | - |
| 1777939555 | 21.11° C | 42% | 997.1 hPa | 0 mm | - | - | - |
| 1777938656 | 21.11° C | 42% | 996.9 hPa | 0 mm | - | - | - |
| 1777936555 | 21.67° C | 41% | 997.4 hPa | 0 mm | - | - | - |
| 1777935052 | 21.11° C | 45% | 998 hPa | 0 mm | - | - | - |
| 1777934153 | 22.22° C | 37% | 998.6 hPa | 0 mm | - | - | - |
| 1777932352 | 25° C | 28% | 998.1 hPa | 0 mm | - | - | - |
| 1777930852 | 25.56° C | 27% | 998.2 hPa | 0 mm | - | - | - |
| 1777930277 | 25.56° C | 27% | 998.3 hPa | 0 mm | - | - | - |
| 1777929355 | 25.56° C | 25% | 998.3 hPa | 0 mm | - | - | - |
| 1777925160 | 27.22° C | 22% | 999 hPa | 0 mm | - | - | - |
| 1777921856 | 27.22° C | 24% | 999.8 hPa | 0 mm | - | - | - |
| 1777920656 | 26.11° C | 23% | 999.8 hPa | 0 mm | - | - | - |
| 1777919758 | 26.11° C | 27% | 1000 hPa | 0 mm | - | - | - |
| 1777914957 | 24.44° C | 30% | 1000.9 hPa | 0 mm | - | - | - |
| 1777911054 | 23.33° C | 27% | 1001.6 hPa | 0 mm | - | - | - |
| 1777910754 | 23.33° C | 30% | 1001.6 hPa | 0 mm | - | - | - |
| 1777908052 | 21.11° C | 37% | 1002.2 hPa | 0 mm | - | - | - |
| 1777907757 | 21.11° C | 38% | 1002.3 hPa | 0 mm | - | - | - |
| 1777907452 | 20.56° C | 36% | 1002.5 hPa | 0 mm | - | - | - |
| 1777906854 | 20° C | 37% | 1002.5 hPa | 0 mm | - | - | - |
| 1777906253 | 20° C | 39% | 1002.5 hPa | 0 mm | - | - | - |
| 1777904160 | 17.78° C | 44% | 1002.9 hPa | 0 mm | - | - | - |
| 1777902052 | 16.67° C | 49% | 1003.3 hPa | 0 mm | - | - | - |
| 1777899054 | 12.78° C | 60% | 1003.7 hPa | 0 mm | - | - | - |
* Rain latest hour (hover to see other rain measurements)
** Current wind speed in m/s (hover to see current wind gust speed)